Powrót do katalogu

SCOUT G-1 DEB

AktywnyPO
NORAD 29362·DEBRIS·🇺🇸 United States

Wystrzelony Apr 26, 1988 z Vandenberg Space Force Base

Loading…

Następne Przeloty (najbliższe 24 godziny)

TLE

ŚwieżeSource: Space-Track

Epoka: Sep 14, 2026, 02:29 UTC

1 29362U 88033J   26257.10361249  .00000073  00000-0  11553-3 0  9990
2 29362  90.3067  19.6971 0210882  60.9431 110.6294 13.32285636631200

Śledź SCOUT G-1 DEB w czasie rzeczywistym z AllMySat

Download on the App Store